Johnstown, PA

9:19 PM EDT on May 26, 2017 (GMT -0400)
Johnstown-Cambria County

Weather History for KJST - March, 2012

Change the Weather History Date:

Sunday, March 4, 2012

  Actual Average Record
Temperature  
Mean Temperature 27 °F 31 °F  
Max Temperature 30 °F 39 °F 78 °F (1894)
Min Temperature 23 °F 24 °F 0 °F (1943)
Degree Days  
Heating Degree Days 38 34  
Month to date heating degree days 137  
Since 1 July heating degree days 5016  
Cooling Degree Days 0 0  
Month to date cooling degree days 0  
Year to date cooling degree days 0  
Moisture  
Dew Point 20 °F    
Average Humidity 81    
Maximum Humidity 100    
Minimum Humidity 54    
Precipitation  
Precipitation 0.06 in 0.07 in 1.24 in (1955)
Month to date precipitation 0.29  
Year to date precipitation 5.52  
Sea Level Pressure  
Sea Level Pressure 29.71 in    
Wind  
Wind Speed 13 mph (West)    
Max Wind Speed 22 mph    
Max Gust Speed 30 mph    
Visibility 5 miles    
Events Fog , Snow    
T = Trace of Precipitation, MM = Missing Value Source: NWS Daily Summary

Daily Weather History Graph

Daily Weather History Graph

Search for Another Location

Airport or City:

Trip Planner

Search our weather history database for the weather conditions in past years. The results will help you decide how hot, cold, wet, or windy it might be!

Date:

Astronomy

Mar. 04, 2012 Rise Set
Actual Time 6:43 AM EST 6:10 PM EST
Civil Twilight 6:16 AM EST 6:38 PM EST
Nautical Twilight 5:44 AM EST 7:09 PM EST
Astronomical Twilight 5:13 AM EST 7:41 PM EST
Moon 2:20 PM EST (3/4) 4:03 AM EST (3/4)
Length of Visible Light 12h 21m
Length of Day
11h 27m
Waxing Gibbous, 83% of the Moon is Illuminated
Mar 4
Waxing Gibbous
Mar 8
Full
Mar 14
Last Quarter
Mar 22
New
Mar 30
First Quarter

Hourly Weather History & Observations

Time (EST) Temp. Windchill Dew Point Humidity Pressure Visibility Wind Dir Wind Speed Gust Speed Precip Events Conditions
12:54 AM 28.0 °F 18.1 °F 17.1 °F 63% 29.73 in 10.0 mi WSW 11.5 mph 16.1 mph N/A   Overcast
1:54 AM 27.0 °F 17.3 °F 18.0 °F 69% 29.73 in 10.0 mi West 10.4 mph - N/A   Overcast
2:54 AM 27.0 °F 16.1 °F 18.0 °F 69% 29.72 in 10.0 mi WSW 12.7 mph 20.7 mph N/A   Overcast
3:54 AM 26.1 °F 14.5 °F 17.1 °F 69% 29.72 in 10.0 mi West 13.8 mph 20.7 mph N/A   Overcast
4:54 AM 25.0 °F 13.6 °F 17.1 °F 72% 29.71 in 10.0 mi West 12.7 mph - N/A   Scattered Clouds
5:30 AM 24.8 °F 12.9 °F 19.4 °F 80% 29.64 in 10.0 mi West 13.8 mph 20.7 mph N/A   Mostly Cloudy
5:54 AM 24.1 °F 13.7 °F 19.0 °F 81% 29.71 in 10.0 mi West 10.4 mph - N/A   Overcast
6:22 AM 24.8 °F 14.0 °F 19.4 °F 80% 29.64 in 10.0 mi West 11.5 mph - N/A   Scattered Clouds
6:54 AM 24.1 °F 12.5 °F 18.0 °F 77% 29.70 in 10.0 mi West 12.7 mph 20.7 mph N/A   Clear
7:52 AM 24.8 °F 11.5 °F 17.6 °F 74% 29.63 in 10.0 mi West 17.3 mph 21.9 mph N/A   Overcast
7:54 AM 24.8 °F 11.5 °F 17.6 °F 74% 29.63 in 10.0 mi West 17.3 mph 21.9 mph N/A   Overcast
8:54 AM 27.0 °F 14.3 °F 19.0 °F 72% 29.70 in 9.0 mi West 17.3 mph 25.3 mph 0.00 in   Overcast
9:09 AM 26.6 °F 14.3 °F 17.6 °F 69% 29.64 in 10.0 mi West 16.1 mph 23.0 mph N/A   Overcast
9:43 AM 26.6 °F 13.8 °F 17.6 °F 69% 29.65 in 7.0 mi West 17.3 mph 25.3 mph 0.00 in Snow Light Snow
9:54 AM 27.0 °F 16.1 °F 17.1 °F 66% 29.72 in 9.0 mi West 12.7 mph 21.9 mph 0.00 in Snow Light Snow
10:13 AM 24.8 °F 10.3 °F 17.6 °F 74% 29.65 in 1.8 mi WNW 20.7 mph 27.6 mph 0.00 in Snow Light Snow
10:24 AM 24.8 °F 11.9 °F 17.6 °F 74% 29.65 in 3.0 mi West 16.1 mph 24.2 mph 0.00 in Snow Light Snow
10:35 AM 26.6 °F 14.7 °F 15.8 °F 64% 29.65 in 10.0 mi West 15.0 mph 21.9 mph 0.00 in   Overcast
10:54 AM 28.0 °F 17.5 °F 14.0 °F 56% 29.72 in 10.0 mi West 12.7 mph 19.6 mph 0.00 in   Mostly Cloudy
11:54 AM 28.9 °F 16.5 °F 15.1 °F 56% 29.72 in 10.0 mi WNW 18.4 mph 24.2 mph N/A   Overcast
12:54 PM 28.9 °F 19.8 °F 14.0 °F 54% 29.70 in 10.0 mi West 10.4 mph 19.6 mph N/A   Overcast
1:54 PM 28.9 °F 18.2 °F 17.1 °F 61% 29.70 in 9.0 mi West 13.8 mph 18.4 mph 0.00 in   Overcast
2:54 PM 30.0 °F 17.9 °F 18.0 °F 61% 29.71 in 10.0 mi WSW 18.4 mph 21.9 mph 0.00 in   Overcast
3:54 PM 28.0 °F 17.0 °F 18.0 °F 66% 29.73 in 4.0 mi West 13.8 mph 26.5 mph 0.00 in Snow Light Snow
4:00 PM 26.6 °F 12.4 °F 19.4 °F 74% 29.65 in 1.8 mi WNW 21.9 mph 29.9 mph 0.00 in Snow Light Snow
4:03 PM 26.6 °F 13.1 °F 19.4 °F 74% 29.65 in 0.8 mi WNW 19.6 mph 29.9 mph 0.00 in Snow Light Snow
4:16 PM 24.8 °F 13.4 °F 23.0 °F 93% 29.66 in 0.2 mi West 12.7 mph 24.2 mph 0.00 in Fog , Snow Heavy Snow
4:23 PM 24.8 °F 12.9 °F 24.8 °F 100% 29.66 in 0.2 mi West 13.8 mph 20.7 mph 0.00 in Fog , Snow Snow
4:39 PM 24.8 °F 13.4 °F 24.8 °F 100% 29.66 in 1.2 mi West 12.7 mph - 0.00 in Snow Light Snow
4:47 PM 26.6 °F 15.7 °F 23.0 °F 86% 29.66 in 9.0 mi West 12.7 mph 19.6 mph 0.00 in   Overcast
4:54 PM 26.1 °F 16.2 °F 21.9 °F 84% 29.75 in 10.0 mi West 10.4 mph 19.6 mph 0.00 in   Overcast
4:59 PM 26.6 °F 15.7 °F 21.2 °F 80% 29.67 in 2.0 mi WNW 12.7 mph - 0.00 in Snow Light Snow
5:06 PM 26.6 °F 15.7 °F 21.2 °F 80% 29.67 in 1.0 mi West 12.7 mph - 0.01 in Snow Light Snow
5:11 PM 26.6 °F 15.7 °F 21.2 °F 80% 29.67 in 3.0 mi West 12.7 mph - 0.01 in Snow Light Snow
5:26 PM 26.6 °F 15.7 °F 23.0 °F 86% 29.68 in 2.0 mi WNW 12.7 mph 20.7 mph 0.01 in Snow Light Snow
5:28 PM 26.6 °F 13.4 °F 23.0 °F 86% 29.68 in 0.5 mi WNW 18.4 mph 23.0 mph 0.01 in Fog , Snow Light Snow
5:35 PM 24.8 °F 11.9 °F 23.0 °F 93% 29.69 in 0.2 mi WNW 16.1 mph 23.0 mph 0.01 in Fog , Snow Heavy Snow
5:42 PM 24.8 °F 13.4 °F 23.0 °F 93% 29.69 in 0.2 mi West 12.7 mph 23.0 mph 0.02 in Fog , Snow Heavy Snow
5:54 PM 24.1 °F 12.5 °F 23.0 °F 96% 29.78 in 0.5 mi West 12.7 mph 18.4 mph 0.02 in Fog , Snow Snow
6:01 PM 24.8 °F 12.4 °F 23.0 °F 93% 29.69 in 2.0 mi West 15.0 mph - 0.00 in Snow Light Snow
6:04 PM 24.8 °F 14.6 °F 23.0 °F 93% 29.69 in 3.0 mi West 10.4 mph - 0.00 in Snow Light Snow
6:10 PM 24.8 °F 14.0 °F 23.0 °F 93% 29.69 in 1.8 mi West 11.5 mph 20.7 mph 0.00 in Snow Light Snow
6:17 PM 24.8 °F 12.9 °F 23.0 °F 93% 29.69 in 0.2 mi WNW 13.8 mph 19.6 mph 0.01 in Fog , Snow Heavy Snow
6:29 PM 24.8 °F 13.4 °F 23.0 °F 93% 29.70 in 1.0 mi West 12.7 mph 21.9 mph 0.01 in Snow Light Snow
6:36 PM 24.8 °F 12.4 °F 23.0 °F 93% 29.70 in 3.0 mi West 15.0 mph 23.0 mph 0.01 in Snow Light Snow
6:54 PM 25.0 °F 12.2 °F 21.9 °F 88% 29.79 in 7.0 mi West 16.1 mph 23.0 mph 0.01 in Snow Light Snow
7:01 PM 24.8 °F 11.9 °F 21.2 °F 86% 29.71 in 9.0 mi West 16.1 mph 23.0 mph 0.00 in   Overcast
7:35 PM 24.8 °F 12.4 °F 21.2 °F 86% 29.71 in 3.0 mi West 15.0 mph 24.2 mph 0.00 in Snow Light Snow
7:44 PM 24.8 °F 14.0 °F 21.2 °F 86% 29.71 in 4.0 mi WNW 11.5 mph - 0.00 in Snow Light Snow
7:51 PM 24.8 °F 14.6 °F 23.0 °F 93% 29.71 in 5.0 mi West 10.4 mph - 0.00 in Snow Light Snow
7:54 PM 24.1 °F 14.4 °F 23.0 °F 96% 29.80 in 5.0 mi WNW 9.2 mph - 0.00 in Snow Light Snow
8:24 PM 24.8 °F 14.6 °F 21.2 °F 86% 29.73 in 4.0 mi WNW 10.4 mph - 0.00 in Snow Light Snow
8:42 PM 24.8 °F 12.9 °F 21.2 °F 86% 29.73 in 6.0 mi WNW 13.8 mph 19.6 mph 0.00 in Snow Light Snow
8:54 PM 24.1 °F 13.1 °F 21.9 °F 91% 29.82 in 10.0 mi West 11.5 mph - 0.00 in   Overcast
9:27 PM 24.8 °F 14.0 °F 21.2 °F 86% 29.75 in 4.0 mi West 11.5 mph 17.3 mph 0.00 in Snow Light Snow
9:54 PM 24.1 °F 15.2 °F 21.9 °F 91% 29.84 in 4.0 mi West 8.1 mph - 0.00 in Snow Light Snow
10:04 PM 24.8 °F 16.9 °F 21.2 °F 86% 29.75 in 1.8 mi West 6.9 mph - 0.00 in Snow Light Snow
10:13 PM 24.8 °F 16.1 °F 21.2 °F 86% 29.75 in 0.8 mi West 8.1 mph - 0.00 in Snow Light Snow
10:21 PM 24.8 °F 16.1 °F 21.2 °F 86% 29.76 in 0.8 mi West 8.1 mph - 0.01 in Snow Light Snow
10:54 PM 24.1 °F 17.0 °F 23.0 °F 96% 29.85 in 1.5 mi West 5.8 mph - 0.03 in Snow Light Snow
11:02 PM 24.8 °F 16.9 °F 21.2 °F 86% 29.76 in 2.5 mi West 6.9 mph - 0.00 in Snow Light Snow
11:10 PM 24.8 °F 14.0 °F 21.2 °F 86% 29.77 in 3.0 mi WNW 11.5 mph 16.1 mph 0.00 in Snow Light Snow
11:29 PM 24.8 °F 16.1 °F 21.2 °F 86% 29.77 in 2.0 mi West 8.1 mph - 0.00 in Snow Light Snow
11:36 PM 24.8 °F 16.1 °F 21.2 °F 86% 29.77 in 1.8 mi West 8.1 mph - 0.00 in Snow Light Snow
11:54 PM 23.0 °F 13.9 °F 21.9 °F 96% 29.85 in 1.8 mi West 8.1 mph - 0.00 in Snow Light Snow